www.pogodaiklimat.ru

Погода и климат >> Архив погоды >> Россия >> Иркутская область >> Жигалово


АРХИВ ПОГОДЫ в Жигалове

Время (UTC), дата Ветер
(напр.,м/с)
 
Видим.   Явления Облачность Т
(С)
Тd
(С)
f
(%)
Тe
(С)
Тes
(С)
Комфортность P
(гПа)
Po
(гПа)
Тmin
(С)
Tmax
(С)
R
(мм)
R24
(мм)
S
(см)
21 11.07 ЮЗ 3 50 км 10/3 1000 м
[Cb cap Ci fib]
+17.8 +12.7 72 +18 +18 1012.3 964.1
00 12.07 ЮЗ 2 10 км дым 10/5 1000 м
[Sc Ac trans Cc]
+18.9 +12.7 67 +20 +21 1013.2 965.2 +17.1
03 12.07 СЗ 2 10 км дым 10/6 600 м
[Cb cap Ac trans Ci fib]
+22.9 +13.8 56 +26 +29 жарко 1012.4 965.1
06 12.07 С 3 10 км дым 10/3 600 м
[Cb cap Ac trans Ci fib]
+25.8 +12.3 43 +27 +32 жарко 1011.0 964.2
09 12.07 С 3 10 км дым 10/4 600 м
[Cb cap Ac trans Ci fib]
+24.9 +11.4 43 1011.1 964.1
12 12.07 С 2 10 км дым 10/5 600 м
[Cb cap Ac trans Ci fib]
+23.1 +12.9 53 +26 +26 жарко 1012.3 965.0 +26.4
15 12.07 З 2 н/о 10/5 600 м
[Cb cap Ac trans Ci fib]
+19.8 +12.3 62 +22 +22 комфорт 1013.9 966.0
18 12.07 З 3 н/о 10/5 600 м
[Cb cap Ac trans Ci fib]
+18.7 +11.7 64 +20 +20 1014.9 966.8
21 12.07 З 3 10 км дым 10/3 600 м
[Cb cap Ac trans Ci fib]
+16.8 +13.4 80 +17 +17 1015.0 966.6
00 13.07 З 3 10 км дым 10/0
[Ac trans Ci fib]
+17.4 +14.0 80 +17 +20 1015.6 967.3 +16.4
03 13.07 С 2 10 км дым 10/3 600 м
[Cb cap Ci fib]
+23.9 +8.1 36 +24 +32 комфорт 1013.8 966.5
06 13.07 СВ 2 10 км дым 10/3 600 м
[Cb cap Ci fib]
+26.5 +6.9 29 +26 +34 жарко 1011.7 964.8
09 13.07 СВ 3
{10}
10 км дым 10/0
[Ci fib]
+27.5 +6.5 26 +27 +32 жарко 1010.2 963.6
12 13.07 С 1 10 км дым 10/0
[Ci fib]
+25.8 +7.9 32 +26 +26 жарко 1009.9 963.1 +28.2
15 13.07 Ю 1 н/о 3/0
[Ci fib]
+16.0 +10.6 70 +17 +17 1012.1 963.7
18 13.07 штиль 0 н/о 3/0
[Ci fib]
+11.5 +9.0 85 +11 +11 1013.2 963.9
21 13.07 штиль 0 50 км 4/0
[Ci fib]
+8.0 +6.5 90 +7 +7 1013.4 963.5
00 14.07 СВ 1 50 км 10/0
[Ci fib]
+13.6 +9.9 78 +14 +18 1011.7 962.8 +7.7
03 14.07 СВ 1 50 км 8/0
[Ci fib]
+23.2 +11.2 47 +25 +38 комфорт 1007.5 960.4
06 14.07 СВ 3 50 км 6/0
[Ci fib]
+27.8 +8.4 29 +28 +38 жарко 1003.8 957.5
09 14.07 СВ 3 50 км 10/0
[Ac trans Ci sp]
+28.0 +9.2 31 +28 +32 жарко 1001.4 955.3
12 14.07 СВ 1 50 км 10/3 600 м
[Cb cap Ac trans Ci fib]
+25.8 +11.4 41 +27 +27 жарко 1001.1 954.7 +28.7
15 14.07 В 1 н/о 10/10 600 м
[Cb cap]
+21.2 +13.0 59 +23 +23 комфорт 1002.2 955.0
18 14.07 З 1 н/о 10/10 600 м
[Cb cap]
+18.2 +14.9 81 +20 +20 1002.4 954.8
21 14.07 З 2 50 км 10/8 600 м
[Cb cap Ac und]
+18.4 +13.9 75 +19 +19 1001.8 954.3
00 15.07 З 1 50 км 10/6 600 м
[Cb cap Ac trans Ci fib]
+19.3 +14.0 71 +22 +23 комфорт 1001.6 954.2 +18.0
03 15.07 В 1 50 км в посл. час ливневой дождь 10/10 600 м
[Cb cap]
+19.6 +14.3 71 +22 +22 комфорт 1002.4 955.0
06 15.07 штиль 0 50 км {ливн. осадки} 10/10 1000 м
[Cb cap]
+21.6 +11.6 53 +24 +24 комфорт 1002.3 955.2
09 15.07 штиль 0 50 км 10/5 1000 м
[Cb cap Ac trans Ci fib]
+23.6 +13.1 52 +26 +28 жарко 1002.2 955.4
12 15.07 ЮЗ 2 50 км 10/8 1000 м
[Cb cap Ac trans Ci fib]
+21.3 +15.1 68 +24 +24 комфорт 1003.1 956.0 +24.1 0.6
15 15.07 ЮЗ 1 н/о слаб. ливневой дождь 10/8 1000 м
[Cb cap Ci fib]
+18.1 +15.6 85 +19 +19 1003.8 956.2
18 15.07 З 1 н/о {ливн. осадки} 6/4 600 м
[Cb cap Ci fib]
+16.5 +14.7 89 +17 +17 1004.9 956.9
21 15.07 СВ 1 50 км 10/3 1000 м
[Cb cap Ac trans Ci fib]
+16.3 +15.0 92 +17 +17 1005.0 957.0
00 16.07 штиль 0 10 км в посл. час туман 10/4 1000 м
[Cb cap Ac trans Ci fib]
+17.3 +15.3 88 +17 +19 1006.7 958.8 +16.0 0.9
03 16.07 ЮЗ 1 10 км {ливн. осадки} 10/10 600 м
[Cb cap]
+19.0 +15.8 82 +21 +21 комфорт 1007.0 959.4
06 16.07 СЗ 1 10 км дым {ливн. осадки} 10/10 600 м
[Cb cap]
+21.6 +16.2 71 +25 +25 комфорт 1006.6 959.4
09 16.07 Ю 1 10 км слаб. ливневой дождь 10/10 600 м
[Cb cap]
+20.2 +18.1 88 +25 +25 комфорт 1007.8 960.3
12 16.07 ЮЗ 1 10 км в посл. час ливневой дождь 10/10 600 м
[Cb cap]
+19.5 +17.5 88 +23 +23 комфорт 1007.4 959.9 +22.0 6
15 16.07 ЮЗ 2 н/о гроза, ливневой дождь 10/10 600 м
[Cb cap]
+18.5 +16.9 90 +20 +20 1007.9 960.1
18 16.07 штиль 0 н/о гроза, ливневой дождь 10/10 600 м
[Cb cap]
+17.8 +16.7 93 +18 +18 1008.4 960.6
21 16.07 СВ 1 10 км {гроза, ливн. осадки} 10/10 300 м
[St]
+17.3 +16.2 93 +18 +18 1007.6 959.6
00 17.07 В 1 10 км {гроза, ливн. осадки} 10/8 300 м
[St Ac trans Ci fib]
+18.1 +17.0 93 +19 +20 1007.3 959.5 +17.3 23
03 17.07 ЮЗ 1 50 км 10/3 600 м
[Cb cap Ci fib]
+23.8 +17.2 67 +28 +36 душно 1005.4 958.6
06 17.07 ЮЗ 1 50 км 8/3 600 м
[Cb cap Ci fib]
+28.2 +17.8 53 +33 +43 очень
душно
1003.3 957.3
09 17.07 З 1 50 км 6/3 600 м
[Cb cap Ci fib]
+30.4 +16.0 42 +33 +39 душно 1001.5 955.8
12 17.07 З 2 50 км 6/3 600 м
[Cb cap Ci fib]
+28.5 +18.8 56 +34 +34 очень
душно
1002.0 956.1 +30.9
15 17.07 В 1 н/о 6/3
[Cb cap Ac trans Ci fib]
+21.2 +17.4 79 +25 +25 комфорт 1003.8 956.7
18 17.07 штиль 0 н/о 8/5 600 м
[Cb cap Ci fib]
+18.6 +16.8 89 +19 +19 1005.0 957.4
21 17.07 штиль 0 50 км 8/5 600 м
[Cb cap Ci fib]
+16.8 +15.7 93 +17 +17 1005.5 957.6
00 18.07 ЮЗ 1 50 км 9/6 600 м
[Cb cap Ci fib]
+17.7 +16.5 93 +19 +20 1005.8 958.1 +16.6
03 18.07 Ю 1 50 км 10/3 1000 м
[Cb cap Ci fib]
+25.4 +18.7 66 +30 +39 душно 1004.1 957.6
06 18.07 ЮЗ 3
{12}
50 км {гроза} 10/8 1000 м
[Cb cap Ac lent Ci fib]
+22.8 +15.7 64 +27 +28 душно 1004.3 957.4
09 18.07 З 2 50 км {гроза} 10/4 1000 м
[Cb cap Ac trans Cs]
+24.2 +18.6 71 +29 +31 душно 1003.7 957.1
12 18.07 ЮЗ 2 50 км {гроза} 10/3 1000 м
[Cb cap Ac und Ci fib]
+20.8 +17.3 80 +25 +25 комфорт 1004.7 957.5 +26.9
15 18.07 ЮЗ 1 н/о 10/4 1000 м
[Cb cap Ac und]
+19.1 +17.5 90 +22 +22 комфорт 1005.3 957.8
18 18.07 ЮЗ 2 н/о 10/4 1000 м
[Cb cap Ac trans Ci fib]
+17.6 +16.3 92 +18 +18 1005.0 957.2

 

Местоположение метеостанции Жигалово (Иркутская область, Россия): широта 54.80 долгота 105.10 высота над уровнем моря 419 м.

В архиве по умолчанию представлена погода в Жигалове за последнюю неделю. Архивные данные за месяц целиком и за предыдущие месяцы, начиная с января 2011 года, Вы можете получить, выбрав интересующий диапазон дат из раскрывающегося списка и нажав кнопку "Ввод!".


*Определитесь, кто Вы:
робот инопланетянин человек

Внимание! Время в таблицах - всемирное. Для получения местного времени необходимо прибавить поправку, которая равна 8 ч.

Смотрите также архив погоды в соседних городах и на ближайших метеорологических станциях:

Погода в Качуге (Иркутская область, Россия) (106 км)
Погода в Тырке (Иркутская область, Россия) (127 км)
Погода в Орлинге (Иркутская область, Россия) (146 км)
Погода в Балаганске (Иркутская область, Россия) (162 км)
Погода в Караме (Иркутская область, Россия) (164 км)
Погода в Баяндае (Иркутская область, Россия) (191 км)
Погода в Заярске (Иркутская область, Россия) (213 км)
Погода в Солнечной (Иркутская область, Россия) (218 км)
Погода в Заларях (Иркутская область, Россия) (219 км)
Погода в Усть-Ордынском (Иркутская область, Россия) (223 км)

Пояснения к столбцам:

Ветер - указаны скорость ветра в м/с - средняя за 10 мин, порывы в срок и между сроками (в фигурных скобках) и направление, откуда дует ветер: С - северный, СВ - северо-восточный, В - восточный, ЮВ - юго-восточный, Ю - южный, ЮЗ - юго-западный, З - западный, СЗ - северо-западный.
Видимость - горизонтальная дальность видимости в метрах или километрах. При видимости от 1 до 10 км при отсутствии осадков обычно наблюдается дымка, при ухудшении видимости до 1 км и менее - туман. В сухую погоду видимость может ухудшаться дымом, пылью или мглою.
Явления - указаны атмосферные явления, наблюдавшиеся в срок или в последний час перед сроком; фигурными скобками обозначены явления, наблюдавшиеся между сроками (за 1-3 часа до срока); квадратными скобками обозначены град или гололедные отложения с указанием их диаметра в мм.
Облачность - указаны через наклонную черту общая и нижняя облачность в баллах и высота нижней границы облаков в метрах; квадратными скобками обозначены формы облаков: Ci - перистые, Cs - перисто-слоистые, Cc - перисто-кучевые, Ac - высококучевые, As - высокослоистые, Sc - слоисто-кучевые, Ns - слоисто-дождевые, Cu - кучевые, Cb - кучево-дождевые. Подробнее классификацию облаков см. в Атласе облаков (PDF).
T - Температура воздуха - температура, измеренная на высоте 2 м над землей.
Td - Температура точки росы - температура, при понижении до которой содержащийся в воздухе водяной пар достигнет насыщения.
f - Относительная влажность воздуха - влажноcть воздуха, измеренная на высоте 2 м над землей.
Te - Эффективная температура - температура, которую ощущает одетый по сезону человек в тени. Характеристика душности погоды. При расчете учитывается влияние влажности воздуха и скорости ветра на теплоощущения человека.
Tes - Эффективная температура на солнце - температура, которую ощущает человек, с поправкой на солнечный нагрев. Характеристика знойности погоды. Зависит от высоты солнца над горизонтом, облачности и скорости ветра. Ночью, в пасмурную погоду, а также при ветре 12 м/с и более поправка равна нулю.
P - Атмосферное давление - приведенное к уровню моря атмосферное давление.
Po - Атмосферное давление - измеренное на уровне метеостанции атмосферное давление.
Tmin - Минимальная температура - минимум температуры воздуха на высоте 2 м над землей.
Tmax - Максимальная температура - максимум температуры воздуха на высоте 2 м над землей.
R - Количество осадков - Количество выпавших осадков за период времени, мм. При наведении курсора мыши на число - период времени, за который выпало указанное количество осадков.
R24 - Количество осадков - Количество выпавших осадков за 24 часа, мм.
S - Снежный покров - Высота снежного покрова, см. При наведении курсора мыши на число - состояние снежного покрова и степень покрытия местности в баллах.